Regional Weather Roundup
Issued by NWS Sioux Falls, SD

Home | Current Version | Previous Version | Text Only | Print | Product List | Glossary Off
Versions: 1 2 3 4 5 6 7 8 9 10 11 12 13 14 15 16 17 18 19 20 21 22 23 24 25 26 27 28 29 30 31 32 33 34 35 36 37 38 39 40 41 42 43 44 45 46 47 48 49 50

000
ASUS43 KFSD 200902
RWRFSD

WEATHER ROUNDUP FOR SE SOUTH DAKOTA/SW MINNESOTA/NW IOWA
NATIONAL WEATHER SERVICE SIOUX FALLS SD
300 AM CST SAT DEC 20 2014

NOTE: "FAIR" INDICATES FEW OR NO CLOUDS BELOW 12,000 FEET WITH NO
SIGNIFICANT WEATHER AND OR OBSTRUCTIONS TO VISIBILITY.


SDZ038>040-050-052>070-201000-
SOUTHEAST SOUTH DAKOTA

CITY           SKY/WX    TMP DP  RH WIND       PRES   REMARKS
CHAMBERLAIN    NOT AVBL
HURON          CLOUDY    27  26  96 S6        30.04R FOG     WCI  20
MADISON        CLOUDY    28  28 100 S14       30.03R FOG     WCI  17
MITCHELL       FOG       27  26  96 S12       30.05S VSB 3/4 WCI  17
SIOUX FALLS    CLOUDY    31  28  89 S10       30.06S WCI  22
WINNER         FAIR      21  15  78 S3        29.97S
YANKTON        CLOUDY    34  28  80 S8        30.07R WCI  27
$$

MNZ071-072-080-081-089-090-097-098-201000-
SOUTHWEST MINNESOTA

CITY           SKY/WX    TMP DP  RH WIND       PRES   REMARKS
FAIRMONT       CLOUDY    30  25  80 S10       30.13R WCI  21
JACKSON        CLOUDY    32  28  86 S9        30.11S FOG     WCI  24
LUVERNE        CLOUDY    32  30  93 S9        30.08S FOG     WCI  24
MARSHALL       CLOUDY    30  27  86 SW12      30.08S WCI  21
MONTEVIDEO     CLOUDY    30  30 100 SW9       30.09R FOG     WCI  22
PIPESTONE      CLOUDY    30  28  93 S5        30.04R FOG     WCI  25
REDWOOD FALLS  CLOUDY    32  28  85 S10       30.10S FOG     WCI  24
TRACY          CLOUDY    32  30  91 S9        30.08S FOG     WCI  24
WINDOM         CLOUDY    30  28  93 S6        30.10R FOG     WCI  24
WORTHINGTON    CLOUDY    28  28 100 S9        30.10R WCI  20
$$

IAZ001>003-012>014-020>022-031-032-NEZ013-014-SDZ071-201000-
NORTHWEST IOWA

CITY           SKY/WX    TMP DP  RH WIND       PRES   REMARKS
DENISON        CLOUDY    28  30 100 S13G18    30.10S FOG     WCI  18
ESTHERVILLE    CLOUDY    28  27  96 S13       30.12S WCI  17
SIOUX CITY     CLOUDY    32  30  92 S9        30.10S FOG     WCI  24
SPENCER        CLOUDY    30  27  88 S13       30.11S FOG     WCI  20
$$

ABBREVIATIONS USED IN REMARKS
   TC - TEMPERATURE IN CELSIUS
  WCI - WIND CHILL INDEX
   HX - HEAT INDEX
  VSB - VISIBILITY




USA.gov is the U.S. government's official web portal to all federal, state and local government web resources and services.